Location: Chiroubles
(46.1812°N, 4.6660°E)
Time: 18:05:49
(UTC+00:00)

USA 238 DEB - Pass Details

Date: 15 August 2020
Orbit: 1006 x 1206 km, 63.4° (Epoch: 19 September)

Event Time Altitude Azimuth Distance (km) Brightness Sun altitude
Rises 20:47:22 0° 236° (SW) 3,746 6.7 -18.0°
Reaches altitude 10° 20:50:00 10° 241° (WSW) 2,813 6.1 -18.3°
Maximum altitude 20:56:27 52° 318° (NW) 1,286 4.5 -19.1°
Drops below altitude 10° 21:03:14 10° 34° (NE) 2,946 6.2 -19.9°
Sets 21:06:03 0° 39° (NE) 3,937 6.8 -20.2°
